This demonstration page uses our WeatherBlox Daily Observations layout. Learn more.

Left ArrowRight Arrow

41.86663, -103.66717

Hourly Observations for March 22, 2017

Temp ( °F °C ) Dew Point ( °F °C ) Humidity (%) Winds ( mph kmh ) Pressure ( in mb ) Visibility ( mi km ) Precip ( " mm )
12:53 am 00:53 Mostly Clear 38 3.3 31 -0.6 76 76 ESE 24 39 30.13 1020 10 16 0.00 0.00
1:53 am 01:53 Clear 39 3.9 31 -0.6 73 73 ESE 18 30 30.12 1020 10 16 0.00 0.00
2:53 am 02:53 Clear 37 2.8 30 -1.1 76 76 SE 14 22 30.10 1019 10 16 0.00 0.00
3:53 am 03:53 Clear 36 2.2 29 -1.7 76 76 ESE 15 24 30.09 1019 10 16 0.00 0.00
4:53 am 04:53 Clear 35 1.7 29 -1.7 78 78 ESE 14 22 30.07 1018 10 16 0.00 0.00
5:53 am 05:53 Clear 35 1.7 29 -1.7 78 78 SE 16 26 30.05 1018 10 16 0.00 0.00
6:53 am 06:53 Clear 36 2.2 29 -1.7 76 76 SE 16 26 30.05 1018 10 16 0.00 0.00
7:53 am 07:53 Sunny 38 3.3 28 -2.2 68 68 SE 16 26 30.05 1018 10 16 0.00 0.00
8:53 am 08:53 Sunny 43 6.1 28 -2.2 56 56 SSE 15 24 30.02 1017 10 16 0.00 0.00
9:53 am 09:53 Sunny 48 8.9 29 -1.7 48 48 S 17 28 29.99 1016 10 16 0.00 0.00
10:53 am 10:53 Sunny 51 10.6 30 -1.1 44 44 SE 14 22 29.96 1015 10 16 0.00 0.00
11:53 am 11:53 Sunny 55 12.8 31 -0.6 40 40 SSE 14 22 29.94 1014 10 16 0.00 0.00
12:53 pm 12:53 Sunny 60 15.6 31 -0.6 33 33 SSE 16 26 29.89 1012 10 16 0.00 0.00
1:53 pm 13:53 Sunny 64 17.8 33 0.6 32 32 SE 15 24 29.84 1010 10 16 0.00 0.00
2:53 pm 14:53 Sunny 67 19.4 33 0.6 28 28 SSE 21 33 29.78 1009 10 16 0.00 0.00
3:53 pm 15:53 Sunny 71 21.7 34 1.1 26 26 SE 13 20 29.77 1008 10 16 0.00 0.00
4:53 pm 16:53 Sunny 70 21.1 34 1.1 27 27 SE 14 22 29.75 1008 10 16 0.00 0.00
5:53 pm 17:53 Sunny 68 20 34 1.1 28 28 SE 15 24 29.75 1008 10 16 0.00 0.00
6:53 pm 18:53 Sunny 62 16.7 34 1.1 35 35 ESE 18 30 29.78 1008 10 16 0.00 0.00
7:53 pm 19:53 Clear 58 14.4 35 1.7 42 42 ESE 18 30 29.78 1009 10 16 0.00 0.00
8:53 pm 20:53 Clear 55 12.8 35 1.7 47 47 ESE 16 26 29.79 1009 10 16 0.00 0.00
9:53 pm 21:53 Clear 51 10.6 36 2.2 56 56 ESE 20 31 29.78 1009 10 16 0.00 0.00
10:53 pm 22:53 Cloudy 50 10 36 2.2 59 59 ESE 20 31 29.77 1008 10 16 0.00 0.00
11:53 pm 23:53 Clear 49 9.4 36 2.2 61 61 E 15 24 29.73 1007 10 16 0.00 0.00

Powered by AerisWeather